User: anonymous   Login
Location: Newark
(37.8333°N, 119.5000°W)
Time: 20:44:53
(UTC+00:00)
Language:

Tiros 1 - Orbit

View from above orbital plane
View from above orbital plane
View from above satellite
View from above satellite

Ground track
Ground track

The orbit data is extracted from the following two-line orbital elements,

1    29U 60002B   19237.48742913 -.00000146  00000-0  93667-5 0  9997
2    29  48.3788 270.0508 0023572  40.9670 319.3007 14.74314432174848
Epoch (UTC): 25 August 2019 11:41:53
Eccentricity: 0.0023572
inclination: 48.3788°
perigee height: 631 km
apogee height: 664 km
right ascension of ascending node: 270.0508°
argument of perigee: 40.9670°
revolutions per day: 14.74314432
mean anomaly at epoch: 319.3007°
orbit number at epoch: 17484

The dashed part of the orbit path shows where the satellite is in the earth's shadow,  

DLR